Погода в Большой Джалге

Россия / Ставропольский край     45°58′10″N   42°41′21″E
темп.,
°C
ветер,
м/с
пор.,
м/с
влажн.,
%
обл.,
%
осадки,
мм/ч
давл.,
гПа
погр.,
м
17 сентября, пт
пт1700:00+16ю3450100 0.0 1017181
03:00+14юв356199 0.0 1018243
06:00+14вюв346231 0.0 1018148
09:00+17вюв564699 0.0 1018749
12:00+16вюв5642100 0.0 1018728
15:00+15юв5646100 0.0 1017494
18:00+14юв3557100 0.0 1017261
21:00+15вюв365295 0.0 1017205
18 сентября, сб
сб1800:00+14вюв364724 0.0 1017117
03:00+13юв34533 0.0 101756
06:00+12юв36645 0.0 1017113
09:00+18юв57505 0.0 1017660
12:00+23юв664297 0.0 10151470
15:00+25юв553868 0.0 10141851
18:00+22вюв5844100 0.0 1014205
21:00+19вюв61247100 0.0 1015336
19 сентября, вс
вс1900:00+18юв7135468 0.0 1015413
03:00+16юв6136521 0.0 1015393
06:00+15юв5127360 0.0 1015389
09:00+19юв71059100 0.0 1015679
12:00+24юв894495 0.0 10141177
15:00+25юв4542100 0.0 10131280
18:00+23юв484695 0.0 1013196
21:00+22юв61151100 0.0 1013391
20 сентября, пн
пн2000:00+20ююв6115575 0.0 1013416
03:00+19ююв485997 0.0 1012253
06:00+18ююв3765100 0.1 1012146
09:00+23зюз465494 0.2 1012523
12:00+26з7104499 0.0 10121503
15:00+28з71036100 0.0 10102279
18:00+21з5864100 1.2 1012332
21:00+18зюз51184100 3.4 1013403
21 сентября, вт
вт2100:00+18ююз348974 2.3 1014308
03:00+18зюз498363 2.6 1014566
06:00+17зюз5985100 0.0 1015583
09:00+19з610646 0.0 1016928
12:00+21з8114492 0.0 10171593
15:00+22з7936100 0.0 10171862
18:00+19з4742100 0.0 1017265
21:00+17з3650100 0.0 1018176